Regional Weather Roundup
Issued by NWS Charleston, SC

Current Version | Previous Version | Text Only | Print | Product List | Glossary Off
Versions: 1 2 3 4 5 6 7 8 9 10 11 12 13 14 15 16 17 18 19 20 21 22 23 24 25 26 27 28 29 30 31 32 33 34 35 36 37 38 39 40 41 42 43 44 45 46 47 48 49 50

690
ASUS42 KCHS 202127
RWRCHS

Regional Weather Roundup
National Weather Service Charleston SC
500 PM EDT FRI APR 20 2018

NOTE: "fair" indicates few or no clouds below 12,000 feet with no
significant weather and/or obstructions to visibility.

Not all stations are quality controlled. Use data with caution,
especially dewpoint observations.

SCZ027-030-031-034>040-042>050-202200-
...Southeast South Carolina...

CITY           SKY/WX    TMP DP  RH WIND       PRES   REMARKS
N Charleston   FAIR      67  41  38 E7        30.26F
Waterfront Prk   N/A     62  45  53 E13       30.13F
Mount Pleasant FAIR      63  43  48 SE8       30.28S
Johns Island   FAIR      63  43  48 E9        30.28S
Pinopolis        N/A     64  36  34 NW5       30.18F
Moncks Corner  FAIR      66  28  24 N5        30.27S
Summerville    FAIR      68  32  26 NE3       30.28S
Beaufort MCAS  FAIR      67  46  47 SE5       30.26F
Beaufort Arpt  FAIR      63  43  48 CALM      30.26S
Hilton Head Is SUNNY     63  45  51 NE7G14    30.28F
Walterboro     FAIR      68  32  26 NE8       30.27S
Allendale      FAIR      68  30  24 CALM      30.26S

...Southern Midlands and Pee Dee...

CITY           SKY/WX    TMP DP  RH WIND       PRES   REMARKS
Georgetown     FAIR      61  36  39 E8        30.29S
Kingstree      FAIR      66  27  22 NE5       30.27F
Orangeburg     FAIR      68  29  23 NE9       30.27F
Barnwell       FAIR      68  27  21 NE5G12    30.26F
Aiken          FAIR      66  30  26 N6        30.30S
Manning        FAIR      63  28  27 CALM      30.27F
Columbia       FAIR      70  25  18 N6        30.26F
Sumter         FAIR      68  28  22 N5        30.25F
Florence       FAIR      67  28  23 N3        30.28F
Myrtle Beach   FAIR      59  40  49 S10       30.29F
N Myrtle Beach FAIR      60  39  45 SE9       30.28F

$$

GAZ063-065-086>088-099>101-113>116-118-119-134>141-150-202200-
...Southeast Georgia...

CITY           SKY/WX    TMP DP  RH WIND       PRES   REMARKS
Savannah Arpt  FAIR      68  39  34 VRB6      30.26F
Hunter AAF     FAIR      67  40  38 NE5       30.24F
Fort Stewart   FAIR      69  41  36 E7        30.23S
Statesboro     FAIR      69  31  24 CALM      30.25F
Sylvania       FAIR      70  41  35 CALM      30.26F
Claxton        FAIR      70  41  34 N7        30.25F

...CSRA, Central and far Southeast Georgia...

CITY           SKY/WX    TMP DP  RH WIND       PRES   REMARKS
Thomson        FAIR      67  29  24 SE13      30.32S
Augusta-Bush   FAIR      71  30  21 VRB5      30.26F
Augusta-Daniel FAIR      70  31  23 CALM      30.27F
Swainsboro     FAIR      70  37  30 E5        30.26S
Vidalia        FAIR      70  43  37 NE8       30.25S
Eastman        FAIR      72  15  11 NE8       30.26F
Hazlehurst     FAIR      70  35  27 CALM      30.23S
Alma           FAIR      71  43  36 VRB5      30.22F
Waycross       FAIR      71  44  37 E8        30.22S
Jesup          CLOUDY    70  45  40 E7        30.24F
Baxley         FAIR      68  41  37 NE9       30.22F
Brunswick      CLOUDY    61  48  63 NE13G20   30.26S
Saint Simons   CLOUDY    62  51  67 N20G26    30.24F

$$

SCZ027-028-034-036>038-045-046-048>050-GAZ119-141-202200-
...Lake and Supplemental Coastal Observations...

STATION/POSITION TIME  TEMP    WIND        PRES    WAVE   SWELL
                       AIR SEA DIR/SP/G            HT/PER HT/PER/DIR
                 (UTC) (F)     (DEG/KT/KT) (MB)    (FT/S) (FT/S/D)
Winyah Bay       2045   58     110/  7     1026.0S
Lake Murray      2020   67     200/  6/  7 1024.4
ACE Basin NERRS  2045   66     350/  5       N/A
Fort Pulaski     2100   60 66   80/ 12/ 16 1025.3
Sapelo Island    2100   62      40/ 15     1024.0

$$

ANZ835-935-AMZ111-154-330-350-352-354-370-450-454-472-202200-
...C-MAN and Buoy Observations...

STATION/POSITION TIME  TEMP    WIND        PRES    WAVE   SWELL
                       AIR SEA DIR/SP/G            HT/PER HT/PER/DIR
                 (UTC) (F)     (DEG/KT/KT) (MB)    (FT/S) (FT/S/D)
Buoy 41004       2110   59 67   40/ 17/ 23 1025.2
Buoy 41008       2050   60 65   50/ 23/ 27 1023.5F   6/ 6   2/ 80/15
Folly Beach CMAN 2100   59      80/ 13/ 15 1025.8F
Capers Nearshore 2108   59 63  100/ 14/ 19 1025.4F
Fripp Nearshore  2108   59 64   80/ 12/ 17 1024.5F


STATION/POSITION TIME  TEMP    WIND        PRES    WAVE   SWELL
                       AIR SEA DIR/SP/G            HT/PER HT/PER/DIR
                 (UTC) (F)     (DEG/KT/KT) (MB)    (FT/S) (FT/S/D)
5E St. Marys GA  2100      66                N/A     7/ 7   2/ 80/11
Frying Pan Buoy  2110   57 65   90/ 10/ 14 1025.6
Buoy 41025       2110   51 70   20/ 12/ 16 1026.2
Cape Lookout NC  2100           90/ 10/ 12 1025.4S
Buoy 41002       2110   64 72   20/ 16/ 19 1022.6
Buoy 41010       2110   75 75   40/ 12/ 16 1019.5
St Augustine FL  2100   64 66  360/ 23/ 27 1022.0F


$$




USA.gov is the U.S. government's official web portal to all federal, state and local government web resources and services.